Regional Weather Roundup
Issued by NWS Cleveland, OH

Home | Current Version | Previous Version | Graphics & Text | Print | Product List | Glossary On
Versions: 1 2 3 4 5 6 7 8 9 10 11 12 13 14 15 16 17 18 19 20 21 22 23 24 25 26 27 28 29 30 31 32 33 34 35 36 37 38 39 40 41 42 43 44 45 46 47 48 49 50
000
ASUS41 KCLE 310510
RWRCLE
OHIO REGIONAL WEATHER ROUNDUP
NATIONAL WEATHER SERVICE CLEVELAND, OH
100 AM EDT FRI JUL 31 2015

NOTE: "FAIR" INDICATES FEW OR NO CLOUDS BELOW 12,000 FEET WITH NO
SIGNIFICANT WEATHER AND/OR OBSTRUCTIONS TO VISIBILITY.

OHZ001>008-015>018-024>027-034-035-043-044-310600-
   NORTHWEST OHIO

CITY           SKY/WX    TMP DP  RH WIND       PRES   REMARKS
DEFIANCE       CLEAR     67  58  72 S3        30.01S
FINDLAY        CLEAR     66  57  72 SW6       30.01S
TOLEDO EXPRESS CLEAR     69  57  65 SW7       30.00R
TOLEDO EXEC    CLEAR     70  58  65 SW6       30.00S
LIMA           CLEAR     64  59  83 SW3       30.04S
$$

OHZ009>014-019>023-028>033-038-089-310600-
   NORTHEAST OHIO

CITY           SKY/WX    TMP DP  RH WIND       PRES   REMARKS
CLE-HOPKINS    CLEAR     67  58  72 W7        30.01R
CLE-LAKEFRONT  CLEAR     77  67  71 W15       29.96S
CUY CO. ARPT   NOT AVBL
LORAIN-ELYRIA  CLEAR     66  57  72 W7        30.00S
ASHTABULA      PTCLDY    68  60  75 W3        29.97S
AKRON-CANTON   CLEAR     69  57  65 W7        30.01S
WOOSTER        CLEAR     60  57  89 CALM      30.02S
MANSFIELD      CLEAR     68  56  65 W8        30.03S
YOUNGSTOWN     PTCLDY    66  58  75 SW6       29.99S
$$

OHZ042-051>053-060>062-070>072-077>081-310600-
  SOUTHWEST OHIO

CITY           SKY/WX    TMP DP  RH WIND       PRES   REMARKS
CINC-COVINGTON CLEAR     72  62  71 VRB3      30.08R
CINC-LUNKEN    CLEAR     65  63  93 CALM      30.07S
HAMILTON       CLEAR     65  63  93 CALM      30.08R
DAYTON         CLEAR     64  58  80 SW7       30.07S
WRIGHT-PAT AFB CLEAR     65  61  87 SW5       30.06R
DAYTON GENERAL CLEAR     69  59  70 CALM      30.07R
WILMINGTON     CLEAR     63  60  90 CALM      30.07R
$$

OHZ036-037-039>041-045>050-054>059-063>069-073>076-082>088-310600-
  CENTRAL AND SOUTHEAST OHIO

CITY           SKY/WX    TMP DP  RH WIND       PRES   REMARKS
COLUMBUS       CLEAR     70  58  65 NW3       30.04R
OSU AIRPORT    CLEAR     68  59  73 W3        30.04S
BOLTON FIELD   CLEAR     67  60  76 W7        30.05S
RICKENBACK AFB CLEAR     67  59  77 CALM      30.04R
NEWARK         CLEAR     63  60  90 CALM      30.04R
MARION         CLEAR     68  56  65 W5        30.03S
LANCASTER      CLEAR     61  58  90 CALM      30.05R
ZANESVILLE     CLEAR     64  59  83 CALM      30.03S
NEW PHILLY     CLEAR     61  60  97 E3        30.03R
$$



USA.gov is the U.S. government's official web portal to all federal, state and local government web resources and services.